EW5286 Weather Reports


Display with metric or nautical units.
time (UTC)temp
F
wind
direction
speed
MPH
gust
MPH
rain 1hr
in
rain 24hr
in
rain mn
in
humidity
%
barometer
mb
20260904050034 83 229 3.0 6.0 0.00 0.00 0.00 73 1012.1
20260904045948 83 224 4.0 6.0 0.00 0.00 0.00 73 1013.9
20260904045423 84 242 3.0 6.0 0.00 0.00 0.00 72 1013.9
20260904044930 84 205 3.0 6.0 0.00 0.00 0.00 72 1013.9
20260904044536 83 238 3.0 6.0 0.00 0.00 0.00 72 1012.0
20260904044442 84 236 3.0 6.0 0.00 0.00 0.00 72 1013.8
20260904043922 84 242 4.0 6.0 0.00 0.00 0.00 71 1013.8
20260904043434 85 219 3.0 6.0 0.00 0.00 0.00 71 1013.8
20260904043041 84 243 2.0 6.0 0.00 0.00 0.00 70 1011.9
20260904042943 85 214 3.0 6.0 0.00 0.00 0.00 70 1013.7
20260904042424 85 234 4.0 7.0 0.00 0.00 0.00 70 1013.7
20260904042006 85 253 3.0 7.0 0.00 0.00 0.00 69 1013.7
20260904041505 85 245 3.0 9.0 0.00 0.00 0.00 69 1011.9
20260904041426 85 215 4.0 9.0 0.00 0.00 0.00 69 1013.7
20260904040936 85 240 4.0 9.0 0.00 0.00 0.00 69 1013.8
20260904040447 86 257 4.0 8.0 0.00 0.00 0.00 68 1013.7
20260904040009 85 217 3.0 7.0 0.00 0.00 0.00 68 1011.9
20260904035926 86 272 3.0 7.0 0.00 0.00 0.00 68 1013.7
20260904035437 86 226 3.0 7.0 0.00 0.00 0.00 69 1013.7
20260904035008 86 238 3.0 8.0 0.00 0.00 0.00 68 1013.7
20260904034604 85 231 3.0 8.0 0.00 0.00 0.00 68 1012.0
20260904034428 86 193 3.0 7.0 0.00 0.00 0.00 68 1013.8
20260904033956 86 181 4.0 7.0 0.00 0.00 0.00 68 1013.8
20260904033425 86 161 3.0 7.0 0.00 0.00 0.00 68 1013.9
20260904033035 85 197 3.0 7.0 0.00 0.00 0.00 68 1012.1
20260904032935 86 256 3.0 7.0 0.00 0.00 0.00 68 1013.8
20260904032444 86 245 3.0 6.0 0.00 0.00 0.00 68 1013.8
20260904031925 86 208 3.0 7.0 0.00 0.00 0.00 68 1013.9
20260904031529 85 206 3.0 7.0 0.00 0.00 0.00 68 1012.1
20260904031436 86 246 3.0 6.0 0.00 0.00 0.00 68 1014.0
20260904030935 86 159 2.0 8.0 0.00 0.00 0.00 68 1013.9
20260904030427 86 210 3.0 7.0 0.00 0.00 0.00 68 1014.0
20260904030033 86 253 2.0 7.0 0.00 0.00 0.00 67 1012.1
20260904025935 86 165 3.0 7.0 0.00 0.00 0.00 67 1013.9
20260904025444 86 189 3.0 7.0 0.00 0.00 0.00 67 1013.9
20260904024934 87 165 2.0 7.0 0.00 0.00 0.00 66 1013.9
20260904024602 86 248 1.0 7.0 0.00 0.00 0.00 66 1012.1
20260904024504 87 244 3.0 7.0 0.00 0.00 0.00 66 1013.9
20260904023922 87 266 2.0 7.0 0.00 0.00 0.00 66 1013.8
20260904023450 87 245 3.0 7.0 0.00 0.00 0.00 66 1013.8
20260904023006 86 191 2.0 7.0 0.00 0.00 0.00 66 1012.0
20260904022940 87 250 3.0 7.0 0.00 0.00 0.00 66 1013.8
20260904022429 87 173 2.0 7.0 0.00 0.00 0.00 66 1013.8
20260904021933 87 164 2.0 8.0 0.00 0.00 0.00 65 1013.7
20260904021512 87 246 2.0 8.0 0.00 0.00 0.00 65 1011.8
20260904021422 87 165 3.0 8.0 0.00 0.00 0.00 65 1013.7
20260904020934 87 243 2.0 5.0 0.00 0.00 0.00 65 1013.6
20260904020505 87 240 1.0 5.0 0.00 0.00 0.00 65 1013.5
20260904020119 87 240 1.0 5.0 0.00 0.00 0.00 65 1011.6
20260904015924 88 226 2.0 5.0 0.00 0.00 0.00 64 1013.4
20260904015436 88 165 2.0 7.0 0.00 0.00 0.00 64 1013.3
20260904014947 88 239 1.0 7.0 0.00 0.00 0.00 64 1013.3
20260904014503 87 190 1.0 6.0 0.00 0.00 0.00 64 1011.5
20260904014428 88 233 2.0 6.0 0.00 0.00 0.00 64 1013.2
20260904013939 88 155 1.0 6.0 0.00 0.00 0.00 64 1013.3
20260904013448 88 131 2.0 7.0 0.00 0.00 0.00 64 1013.3
20260904013035 87 243 2.0 7.0 0.00 0.00 0.00 63 1011.4
20260904012942 88 176 3.0 7.0 0.00 0.00 0.00 63 1013.2
20260904012422 88 204 2.0 5.0 0.00 0.00 0.00 63 1013.2
20260904011930 88 186 1.0 5.0 0.00 0.00 0.00 62 1013.1
20260904011547 88 200 0.0 3.0 0.00 0.00 0.00 62 1011.2
20260904011441 89 278 1.0 3.0 0.00 0.00 0.00 62 1013.1
20260904010922 89 179 1.0 6.0 0.00 0.00 0.00 61 1013.1
20260904010433 89 200 1.0 7.0 0.00 0.00 0.00 61 1013.0
20260904010058 89 203 2.0 7.0 0.00 0.00 0.00 61 1011.2
20260904005946 89 222 3.0 7.0 0.00 0.00 0.00 61 1013.0
20260904005425 89 259 3.0 5.0 0.00 0.00 0.00 60 1012.9
20260904004936 90 235 2.0 5.0 0.00 0.00 0.00 60 1012.9
20260904004555 89 251 2.0 5.0 0.00 0.00 0.00 60 1011.1
20260904004444 90 250 3.0 5.0 0.00 0.00 0.00 60 1013.0
20260904003924 90 184 2.0 4.0 0.00 0.00 0.00 60 1013.0
20260904003456 90 214 1.0 5.0 0.00 0.00 0.00 59 1013.0
20260904003015 90 238 0.0 5.0 0.00 0.00 0.00 59 1011.1
20260904002942 90 223 1.0 5.0 0.00 0.00 0.00 59 1012.9
20260904002422 91 238 1.0 6.0 0.00 0.00 0.00 58 1012.9
20260904001934 91 227 3.0 6.0 0.00 0.00 0.00 58 1012.9
20260904001520 91 202 2.0 6.0 0.00 0.00 0.00 57 1011.1
20260904001424 91 195 3.0 6.0 0.00 0.00 0.00 57 1012.9
20260904000925 91 172 1.0 5.0 0.00 0.00 0.00 57 1012.9
20260904000440 92 250 2.0 5.0 0.00 0.00 0.00 56 1012.9
20260904000027 91 188 2.0 5.0 0.00 0.00 0.00 56 1011.1
20260903235927 92 243 2.0 5.0 0.00 0.00 0.00 56 1012.9
20260903235426 92 223 2.0 6.0 0.00 0.00 0.00 55 1012.9
20260903234939 92 228 2.0 6.0 0.00 0.00 0.00 55 1012.8
20260903234535 92 212 1.0 5.0 0.00 0.00 0.00 55 1011.0
20260903234426 92 203 2.0 5.0 0.00 0.00 0.00 55 1012.9
20260903233937 92 237 2.0 7.0 0.00 0.00 0.00 55 1012.7
20260903233447 92 181 2.0 7.0 0.00 0.00 0.00 55 1012.7
20260903233102 92 198 2.0 7.0 0.00 0.00 0.00 55 1010.9
20260903232947 93 196 4.0 7.0 0.00 0.00 0.00 55 1012.7
20260903232438 93 144 3.0 5.0 0.00 0.00 0.00 55 1012.8
20260903231930 93 160 3.0 5.0 0.00 0.00 0.00 55 1012.7
20260903231549 92 274 2.0 5.0 0.00 0.00 0.00 55 1010.8
20260903231431 93 231 1.0 5.0 0.00 0.00 0.00 55 1012.7
20260903230948 93 239 3.0 5.0 0.00 0.00 0.00 55 1012.7
20260903230428 93 194 2.0 5.0 0.00 0.00 0.00 55 1012.6
20260903230020 92 243 2.0 5.0 0.00 0.00 0.00 55 1010.8
20260903225937 93 252 2.0 5.0 0.00 0.00 0.00 54 1012.6
20260903225428 93 270 3.0 5.0 0.00 0.00 0.00 54 1012.6
20260903224925 93 252 3.0 6.0 0.00 0.00 0.00 54 1012.6
20260903224523 93 229 4.0 6.0 0.00 0.00 0.00 54 1010.7
20260903224435 93 250 4.0 6.0 0.00 0.00 0.00 54 1012.6
20260903223944 93 239 2.0 6.0 0.00 0.00 0.00 55 1012.6
20260903223425 93 231 5.0 7.0 0.00 0.00 0.00 53 1012.6
20260903223020 93 198 2.0 7.0 0.00 0.00 0.00 54 1010.8
20260903222954 93 285 3.0 7.0 0.00 0.00 0.00 55 1012.7
20260903222425 93 244 4.0 9.0 0.00 0.00 0.00 55 1012.7
20260903221927 93 263 5.0 9.0 0.00 0.00 0.00 55 1012.7
20260903221610 92 233 3.0 8.0 0.00 0.00 0.00 55 1010.8
20260903220946 93 245 5.0 8.0 0.00 0.00 0.00 56 1012.7
20260903220448 92 240 4.0 8.0 0.00 0.00 0.00 56 1012.7
20260903220009 91 248 3.0 7.0 0.00 0.00 0.00 57 1010.8
20260903215936 92 248 3.0 7.0 0.00 0.00 0.00 57 1012.7
20260903215447 92 200 3.0 8.0 0.00 0.00 0.00 57 1012.9
20260903214934 92 172 3.0 8.0 0.00 0.00 0.00 56 1012.8
20260903214558 92 221 2.0 6.0 0.00 0.00 0.00 55 1011.0
20260903214434 92 231 2.0 5.0 0.00 0.00 0.00 55 1012.8
20260903213925 93 242 3.0 6.0 0.00 0.00 0.00 54 1012.8
20260903213438 93 233 3.0 8.0 0.00 0.00 0.00 54 1012.9
20260903213105 92 215 3.0 8.0 0.00 0.00 0.00 55 1011.1
20260903213007 92 203 3.0 7.0 0.00 0.00 0.00 55 1012.9
20260903212426 92 240 3.0 8.0 0.00 0.00 0.00 56 1013.0
20260903211938 92 197 4.0 6.0 0.00 0.00 0.00 56 1013.1
20260903211549 91 244 2.0 8.0 0.00 0.00 0.00 56 1011.3
20260903211427 92 224 3.0 8.0 0.00 0.00 0.00 56 1013.2
20260903210930 92 243 4.0 8.0 0.00 0.00 0.00 55 1013.2
20260903210430 92 249 3.0 8.0 0.00 0.00 0.00 55 1013.3
20260903210027 92 186 3.0 8.0 0.00 0.00 0.00 54 1011.4
20260903205943 93 252 3.0 9.0 0.00 0.00 0.00 54 1013.3
20260903205422 93 179 5.0 9.0 0.00 0.00 0.00 53 1013.3
20260903204934 94 208 5.0 8.0 0.00 0.00 0.00 53 1013.3
20260903204533 94 233 2.0 8.0 0.00 0.00 0.00 52 1011.5
20260903204445 95 148 2.0 8.0 0.00 0.00 0.00 52 1013.3
20260903203926 94 244 4.0 9.0 0.00 0.00 0.00 51 1013.4
20260903203437 95 181 5.0 8.0 0.00 0.00 0.00 50 1013.4
20260903203040 95 234 2.0 9.0 0.00 0.00 0.00 51 1011.7
20260903202945 95 271 3.0 9.0 0.00 0.00 0.00 52 1013.5
20260903202426 94 222 5.0 9.0 0.00 0.00 0.00 53 1013.7
20260903201938 95 205 3.0 7.0 0.00 0.00 0.00 51 1013.7
20260903201549 95 221 2.0 11.0 0.00 0.00 0.00 52 1011.9
20260903201450 95 184 3.0 11.0 0.00 0.00 0.00 52 1013.8
20260903200931 95 241 3.0 11.0 0.00 0.00 0.00 50 1013.7
20260903200442 95 231 4.0 10.0 0.00 0.00 0.00 51 1013.9
20260903200055 94 214 3.0 9.0 0.00 0.00 0.00 51 1012.0
20260903195923 95 252 3.0 7.0 0.00 0.00 0.00 51 1013.9
20260903195431 94 249 3.0 7.0 0.00 0.00 0.00 52 1014.0
20260903194943 94 224 4.0 8.0 0.00 0.00 0.00 52 1014.1
20260903194603 93 243 4.0 11.0 0.00 0.00 0.00 52 1012.2
20260903194451 94 252 5.0 11.0 0.00 0.00 0.00 52 1014.0
20260903193928 95 224 6.0 11.0 0.00 0.00 0.00 50 1014.1
20260903193438 96 239 2.0 12.0 0.00 0.00 0.00 51 1014.1
20260903193039 96 145 5.0 12.0 0.00 0.00 0.00 49 1012.4
20260903192950 96 207 6.0 12.0 0.00 0.00 0.00 48 1014.2
20260903192431 98 257 3.0 7.0 0.00 0.00 0.00 48 1014.2
20260903191923 95 242 4.0 9.0 0.00 0.00 0.00 51 1014.3
20260903191546 94 185 3.0 9.0 0.00 0.00 0.00 52 1012.5
20260903191425 94 238 5.0 9.0 0.00 0.00 0.00 52 1014.4
20260903190936 95 214 5.0 8.0 0.00 0.00 0.00 50 1014.5
20260903190426 95 210 4.0 9.0 0.00 0.00 0.00 50 1014.5
20260903190036 95 241 4.0 11.0 0.00 0.00 0.00 50 1012.8
20260903185931 96 245 6.0 11.0 0.00 0.00 0.00 49 1014.6
20260903185433 96 207 7.0 10.0 0.00 0.00 0.00 49 1014.6
20260903185003 96 217 4.0 9.0 0.00 0.00 0.00 50 1014.7
20260903184517 94 214 3.0 12.0 0.00 0.00 0.00 51 1012.9
20260903184432 95 193 4.0 12.0 0.00 0.00 0.00 51 1014.7
20260903183943 94 183 6.0 12.0 0.00 0.00 0.00 51 1014.7
20260903183446 94 239 4.0 9.0 0.00 0.00 0.00 52 1014.7
20260903183004 93 221 6.0 10.0 0.00 0.00 0.00 52 1013.0
20260903182934 94 235 6.0 10.0 0.00 0.00 0.00 52 1014.9
20260903182425 94 236 6.0 10.0 0.00 0.00 0.00 52 1014.9
20260903181956 93 261 4.0 9.0 0.00 0.00 0.00 55 1014.9
20260903181603 92 251 5.0 11.0 0.00 0.00 0.00 55 1013.2
20260903181506 92 233 7.0 11.0 0.00 0.00 0.00 55 1015.1
20260903180922 93 243 8.0 11.0 0.00 0.00 0.00 53 1015.1
20260903180434 93 227 6.0 10.0 0.00 0.00 0.00 54 1015.2
20260903180054 93 245 5.0 10.0 0.00 0.00 0.00 53 1013.3
20260903175946 94 280 4.0 10.0 0.00 0.00 0.00 55 1015.1
20260903175511 93 195 6.0 13.0 0.00 0.00 0.00 54 1015.3
20260903174931 93 256 5.0 13.0 0.00 0.00 0.00 55 1015.4
20260903174522 93 217 5.0 10.0 0.00 0.00 0.00 54 1013.6
20260903174502 93 176 6.0 10.0 0.00 0.00 0.00 54 1015.5
20260903173929 92 249 4.0 9.0 0.00 0.00 0.00 56 1015.5
20260903173438 92 232 4.0 9.0 0.00 0.00 0.00 56 1015.5
20260903173057 92 231 4.0 9.0 0.00 0.00 0.00 55 1013.8
20260903172950 93 288 5.0 9.0 0.00 0.00 0.00 57 1015.8
20260903172431 92 248 5.0 11.0 0.00 0.00 0.00 56 1015.8
20260903171943 92 269 5.0 12.0 0.00 0.00 0.00 56 1015.8
20260903171535 91 225 5.0 12.0 0.00 0.00 0.00 57 1014.0
20260903171433 91 266 6.0 12.0 0.00 0.00 0.00 57 1015.9
20260903170935 91 240 6.0 11.0 0.00 0.00 0.00 57 1015.8
20260903170426 92 219 5.0 11.0 0.00 0.00 0.00 56 1015.9
20260903170152 91 228 4.0 11.0 0.00 0.00 0.00 58 1014.2
20260903165947 91 266 5.0 11.0 0.00 0.00 0.00 58 1016.0
20260903165427 91 213 3.0 10.0 0.00 0.00 0.00 59 1016.1
20260903164939 91 229 6.0 10.0 0.00 0.00 0.00 58 1016.1
20260903164559 91 226 3.0 6.0 0.00 0.00 0.00 59 1014.2
20260903164439 91 210 4.0 6.0 0.00 0.00 0.00 58 1016.1
20260903163928 91 254 3.0 10.0 0.00 0.00 0.00 61 1016.2
20260903163436 90 221 6.0 10.0 0.00 0.00 0.00 60 1016.2
20260903163104 90 202 5.0 10.0 0.00 0.00 0.00 59 1014.4
20260903162936 91 238 4.0 7.0 0.00 0.00 0.00 61 1016.1
20260903162446 90 184 4.0 8.0 0.00 0.00 0.00 61 1016.3
20260903161957 90 243 3.0 10.0 0.00 0.00 0.00 62 1016.3
20260903161528 89 178 4.0 10.0 0.00 0.00 0.00 62 1014.5
20260903161424 89 200 4.0 10.0 0.00 0.00 0.00 63 1016.3
20260903160954 89 247 3.0 6.0 0.00 0.00 0.00 62 1016.4
20260903160425 89 241 4.0 7.0 0.00 0.00 0.00 64 1016.4
20260903160051 88 235 4.0 7.0 0.00 0.00 0.00 64 1014.7
20260903155922 88 250 5.0 7.0 0.00 0.00 0.00 64 1016.4
20260903155434 88 197 4.0 9.0 0.00 0.00 0.00 65 1016.4
20260903154946 88 295 4.0 9.0 0.00 0.00 0.00 65 1016.4
20260903154600 87 248 2.0 6.0 0.00 0.00 0.00 65 1014.6
20260903154427 88 200 3.0 7.0 0.00 0.00 0.00 66 1016.4
20260903153938 87 238 4.0 7.0 0.00 0.00 0.00 67 1016.4
20260903153450 86 248 3.0 9.0 0.00 0.00 0.00 68 1016.4
20260903153046 86 223 4.0 9.0 0.00 0.00 0.00 67 1014.6
20260903152955 86 219 4.0 8.0 0.00 0.00 0.00 68 1016.4
20260903152446 86 256 3.0 6.0 0.00 0.00 0.00 70 1016.5
20260903151928 86 244 3.0 6.0 0.00 0.00 0.00 71 1016.3
20260903151544 85 228 2.0 5.0 0.00 0.00 0.00 71 1014.6
20260903151440 86 261 3.0 5.0 0.00 0.00 0.00 70 1016.4
20260903150950 86 233 2.0 5.0 0.00 0.00 0.00 72 1016.3
20260903150430 86 255 2.0 5.0 0.00 0.00 0.00 73 1016.4
20260903150046 85 252 1.0 4.0 0.00 0.00 0.00 74 1014.6
20260903145950 85 170 1.0 4.0 0.00 0.00 0.00 74 1016.4
20260903145431 84 221 2.0 4.0 0.00 0.00 0.00 75 1016.4
20260903144924 84 269 1.0 4.0 0.00 0.00 0.00 77 1016.4
20260903144551 83 214 1.0 4.0 0.00 0.00 0.00 77 1014.7
20260903144454 84 247 1.0 4.0 0.00 0.00 0.00 77 1016.4
20260903144004 83 186 2.0 4.0 0.00 0.00 0.00 77 1016.4
20260903143425 83 257 1.0 3.0 0.00 0.00 0.00 78 1016.4
20260903143017 82 262 1.0 3.0 0.00 0.00 0.00 79 1014.7
20260903142935 83 266 1.0 3.0 0.00 0.00 0.00 79 1016.4
20260903142446 82 245 1.0 3.0 0.00 0.00 0.00 79 1016.4
20260903141936 82 261 1.0 3.0 0.00 0.00 0.00 80 1016.6
20260903141533 81 256 0.0 5.0 0.00 0.00 0.00 81 1014.8
20260903141446 81 269 1.0 5.0 0.00 0.00 0.00 81 1016.6
20260903140927 81 246 2.0 5.0 0.00 0.00 0.00 81 1016.6
20260903140435 80 259 3.0 4.0 0.00 0.00 0.00 81 1016.7
20260903140022 80 250 0.0 3.0 0.00 0.00 0.00 83 1014.9
20260903135925 80 260 0.0 3.0 0.00 0.00 0.00 82 1016.7
20260903135455 80 261 0.0 1.0 0.00 0.00 0.00 83 1016.7
20260903134945 79 288 0.0 1.0 0.00 0.00 0.00 83 1016.7
20260903134502 78 255 0.0 1.0 0.00 0.00 0.00 84 1014.9
20260903134425 79 258 0.0 1.0 0.00 0.00 0.00 84 1016.7
20260903133936 79 268 0.0 1.0 0.00 0.00 0.00 85 1016.7
20260903133447 78 238 0.0 1.0 0.00 0.00 0.00 85 1016.7
20260903133009 77 287 0.0 1.0 0.00 0.00 0.00 86 1014.9
20260903132928 78 264 0.0 1.0 0.00 0.00 0.00 86 1016.6
20260903132500 77 253 0.0 1.0 0.00 0.00 0.00 87 1016.7
20260903131950 77 264 0.0 1.0 0.00 0.00 0.00 87 1016.7
20260903131541 76 238 0.0 1.0 0.00 0.00 0.00 87 1015.0
20260903131441 77 233 0.0 1.0 0.00 0.00 0.00 88 1016.7
20260903130941 76 230 0.0 2.0 0.00 0.00 0.00 88 1016.7
20260903130422 76 261 0.0 2.0 0.00 0.00 0.00 88 1016.7
20260903130035 75 238 0.0 1.0 0.00 0.00 0.00 88 1014.9
20260903125933 76 238 0.0 1.0 0.00 0.00 0.00 88 1016.7
20260903125500 76 224 0.0 1.0 0.00 0.00 0.00 89 1016.6
20260903124949 76 234 0.0 1.0 0.00 0.00 0.00 89 1016.6
20260903124500 75 248 0.0 1.0 0.00 0.00 0.00 89 1014.8
20260903124429 75 248 0.0 1.0 0.00 0.00 0.00 89 1016.5
20260903123921 75 250 0.0 2.0 0.00 0.00 0.00 89 1016.6
20260903123451 75 247 0.0 2.0 0.00 0.00 0.00 89 1016.5
20260903123009 75 248 0.0 2.0 0.00 0.00 0.00 89 1014.7
20260903122932 75 248 0.0 2.0 0.00 0.00 0.00 89 1016.5
20260903122422 75 255 1.0 2.0 0.00 0.00 0.00 89 1016.4
20260903121933 75 246 1.0 2.0 0.00 0.00 0.00 89 1016.3
20260903121555 75 247 1.0 2.0 0.00 0.00 0.00 89 1014.6
20260903121434 75 247 1.0 3.0 0.00 0.00 0.00 89 1016.3
20260903120946 76 241 1.0 3.0 0.00 0.00 0.00 89 1016.3
20260903120437 76 248 2.0 3.0 0.00 0.00 0.00 89 1016.2
20260903120050 75 241 1.0 4.0 0.00 0.00 0.00 88 1014.5
20260903115947 75 242 2.0 4.0 0.00 0.00 0.00 88 1016.2
20260903115428 75 245 2.0 4.0 0.00 0.00 0.00 89 1016.1
20260903114956 75 235 2.0 3.0 0.00 0.00 0.00 88 1016.1
20260903114550 75 240 2.0 3.0 0.00 0.00 0.00 88 1014.3
20260903114446 75 242 3.0 3.0 0.00 0.00 0.00 88 1016.1
20260903113956 76 242 2.0 3.0 0.00 0.00 0.00 88 1016.0
20260903113439 76 243 2.0 3.0 0.00 0.00 0.00 88 1016.0
20260903113022 75 243 1.0 3.0 0.00 0.00 0.00 88 1014.2
20260903112927 76 244 2.0 3.0 0.00 0.00 0.00 88 1015.9
20260903112439 76 246 1.0 3.0 0.00 0.00 0.00 88 1015.9
20260903111941 76 248 1.0 3.0 0.00 0.00 0.00 87 1015.8
20260903111522 75 245 1.0 2.0 0.00 0.00 0.00 87 1013.9
20260903111429 76 249 1.0 2.0 0.00 0.00 0.00 87 1015.6
20260903110939 76 243 0.0 2.0 0.00 0.00 0.00 87 1015.6
20260903110450 76 234 1.0 2.0 0.00 0.00 0.00 87 1015.6
20260903110007 76 234 0.0 2.0 0.00 0.00 0.00 87 1013.7
20260903105931 76 234 0.0 2.0 0.00 0.00 0.00 87 1015.5
20260903105443 76 236 1.0 2.0 0.00 0.00 0.00 86 1015.5
20260903104925 76 236 1.0 3.0 0.00 0.00 0.00 86 1015.5
20260903104516 76 243 2.0 3.0 0.00 0.00 0.00 86 1013.7
20260903104435 77 243 2.0 3.0 0.00 0.00 0.00 86 1015.4
20260903103946 77 243 2.0 3.0 0.00 0.00 0.00 85 1015.4
20260903103437 77 237 2.0 3.0 0.00 0.00 0.00 85 1015.4
20260903103103 76 237 2.0 3.0 0.00 0.00 0.00 85 1013.5
20260903102932 77 237 2.0 3.0 0.00 0.00 0.00 85 1015.3
20260903102424 77 238 2.0 3.0 0.00 0.00 0.00 85 1015.3
20260903101926 77 238 2.0 3.0 0.00 0.00 0.00 85 1015.2
20260903101509 77 238 2.0 3.0 0.00 0.00 0.00 85 1013.4
20260903101439 77 238 2.0 3.0 0.00 0.00 0.00 85 1015.2
20260903100928 77 239 2.0 3.0 0.00 0.00 0.00 84 1015.2
20260903100431 77 236 2.0 3.0 0.00 0.00 0.00 84 1015.2
20260903100026 77 239 1.0 3.0 0.00 0.00 0.00 84 1013.4
20260903095943 77 241 2.0 3.0 0.00 0.00 0.00 84 1015.2
20260903095421 78 238 2.0 3.0 0.00 0.00 0.00 84 1015.2
20260903094933 78 237 3.0 4.0 0.00 0.00 0.00 83 1015.1
20260903094524 77 240 2.0 4.0 0.00 0.00 0.00 83 1013.3
20260903094422 78 240 3.0 4.0 0.00 0.00 0.00 83 1015.1
20260903093925 78 239 3.0 4.0 0.00 0.00 0.00 83 1015.0
20260903093436 78 243 3.0 5.0 0.00 0.00 0.00 83 1015.0
20260903093042 77 237 3.0 5.0 0.00 0.00 0.00 83 1013.1
20260903092926 78 240 4.0 6.0 0.00 0.00 0.00 83 1015.0
20260903092428 78 239 4.0 6.0 0.00 0.00 0.00 83 1014.9
20260903091939 78 237 3.0 5.0 0.00 0.00 0.00 83 1014.9
20260903091537 77 232 2.0 4.0 0.00 0.00 0.00 83 1013.2
20260903091450 78 238 3.0 4.0 0.00 0.00 0.00 83 1015.0
20260903090930 78 239 4.0 4.0 0.00 0.00 0.00 83 1015.0
20260903090503 78 238 3.0 4.0 0.00 0.00 0.00 83 1014.9
20260903090026 78 238 3.0 4.0 0.00 0.00 0.00 82 1013.1
20260903085931 78 238 4.0 4.0 0.00 0.00 0.00 82 1014.9
20260903085429 78 238 3.0 4.0 0.00 0.00 0.00 82 1014.9
20260903084941 78 239 3.0 4.0 0.00 0.00 0.00 82 1014.9
20260903084532 78 238 3.0 4.0 0.00 0.00 0.00 82 1013.1
20260903084430 79 240 3.0 4.0 0.00 0.00 0.00 82 1014.9
20260903083933 78 240 3.0 4.0 0.00 0.00 0.00 82 1014.9
20260903083424 78 239 3.0 4.0 0.00 0.00 0.00 82 1014.9
20260903083034 78 239 3.0 4.0 0.00 0.00 0.00 82 1013.1
20260903082935 78 238 4.0 4.0 0.00 0.00 0.00 82 1014.9
20260903082436 79 238 3.0 4.0 0.00 0.00 0.00 81 1014.8
20260903081927 79 241 4.0 4.0 0.00 0.00 0.00 81 1014.8
20260903081542 78 240 3.0 4.0 0.00 0.00 0.00 82 1013.0
20260903081456 79 239 4.0 4.0 0.00 0.00 0.00 81 1014.9
20260903080941 79 239 4.0 4.0 0.00 0.00 0.00 81 1014.8
20260903080424 79 238 3.0 5.0 0.00 0.00 0.00 81 1014.9
20260903080022 78 240 3.0 5.0 0.00 0.00 0.00 81 1013.1
20260903075934 79 245 4.0 5.0 0.00 0.00 0.00 81 1014.9
20260903075444 79 240 3.0 4.0 0.00 0.00 0.00 81 1014.9
20260903074927 79 238 4.0 4.0 0.00 0.00 0.00 81 1014.8
20260903074530 79 240 4.0 4.0 0.00 0.00 0.00 81 1013.0
20260903074459 79 240 4.0 4.0 0.00 0.00 0.00 81 1014.9
20260903073928 79 237 3.0 5.0 0.00 0.00 0.00 80 1014.9
20260903073456 79 238 3.0 5.0 0.00 0.00 0.00 80 1014.9
20260903073107 79 240 3.0 5.0 0.00 0.00 0.00 80 1013.1
20260903073007 79 240 4.0 5.0 0.00 0.00 0.00 80 1014.9
20260903072427 80 240 4.0 5.0 0.00 0.00 0.00 79 1014.9
20260903071939 80 240 4.0 6.0 0.00 0.00 0.00 79 1015.0
20260903071549 79 240 4.0 6.0 0.00 0.00 0.00 79 1013.1
20260903071451 80 240 4.0 6.0 0.00 0.00 0.00 79 1015.0
20260903070952 80 241 4.0 5.0 0.00 0.00 0.00 79 1015.0
20260903070422 80 241 4.0 6.0 0.00 0.00 0.00 79 1015.0
20260903070035 80 241 4.0 6.0 0.00 0.00 0.00 79 1013.0
20260903065931 80 250 4.0 6.0 0.00 0.00 0.00 79 1014.9
20260903065434 80 236 4.0 6.0 0.00 0.00 0.00 79 1014.9
20260903064925 80 240 4.0 6.0 0.00 0.00 0.00 78 1014.9
20260903064541 80 248 4.0 6.0 0.00 0.00 0.00 78 1013.1
20260903064425 80 238 4.0 5.0 0.00 0.00 0.00 78 1014.9
20260903063937 81 240 4.0 5.0 0.00 0.00 0.00 78 1015.0
20260903063429 81 245 4.0 5.0 0.00 0.00 0.00 78 1015.0
20260903063050 80 245 3.0 5.0 0.00 0.00 0.00 78 1013.2
20260903062930 81 240 4.0 5.0 0.00 0.00 0.00 78 1015.0
20260903062421 81 243 4.0 5.0 0.00 0.00 0.00 78 1015.1
20260903061933 81 240 3.0 5.0 0.00 0.00 0.00 78 1015.1
20260903061558 80 234 3.0 5.0 0.00 0.00 0.00 78 1013.3
20260903061434 81 235 4.0 5.0 0.00 0.00 0.00 78 1015.1
20260903060925 81 239 4.0 5.0 0.00 0.00 0.00 78 1015.1
20260903060423 81 242 4.0 5.0 0.00 0.00 0.00 77 1015.1
20260903060106 81 238 4.0 5.0 0.00 0.00 0.00 77 1013.2
20260903060003 81 249 4.0 5.0 0.00 0.00 0.00 77 1015.1
20260903055422 81 242 3.0 5.0 0.00 0.00 0.00 77 1015.1
20260903054933 81 240 4.0 5.0 0.00 0.00 0.00 77 1015.1
20260903054549 81 240 3.0 6.0 0.00 0.00 0.00 77 1013.3
20260903054433 81 239 4.0 6.0 0.00 0.00 0.00 77 1015.1
20260903053924 81 242 4.0 6.0 0.00 0.00 0.00 76 1015.0
20260903053436 81 240 4.0 5.0 0.00 0.00 0.00 76 1015.0
20260903053101 81 239 3.0 5.0 0.00 0.00 0.00 76 1013.2
20260903052940 82 241 4.0 5.0 0.00 0.00 0.00 76 1015.0
20260903052427 81 238 4.0 5.0 0.00 0.00 0.00 76 1014.9
20260903051938 82 241 4.0 5.0 0.00 0.00 0.00 76 1014.9
20260903051606 81 239 3.0 4.0 0.00 0.00 0.00 75 1013.1
20260903051446 82 239 4.0 4.0 0.00 0.00 0.00 75 1014.9
20260903050927 82 238 3.0 4.0 0.00 0.00 0.00 74 1014.9
20260903050439 82 236 3.0 5.0 0.00 0.00 0.00 74 1014.9